Weather in Brockenhurst

United Kingdom     50°49′10″N   1°34′26″W
temp.,
°C
wind,
m/s
gust,
m/s
humid.,
%
clouds,
%
prec.,
mm/h
press.,
hPa
HPBL,
m
15 april, thu
thu1501:00+4e45861 0.0 1033157
04:00+1ne34885 0.0 1033122
07:00+1ne47905 0.0 1034202
10:00+6ne56665 0.0 1034852
13:00+9e354992 0.0 10331737
16:00+9ne245293 0.1 10311208
19:00+7ene257898 0.7 1031358
22:00+5ne478930 0.5 1032235
16 april, fri
fri1601:00+3ne35915 0.5 1032122
04:00+2nne35938 0.0 1031143
07:00+1nne479520 0.0 1032182
10:00+6ne56705 0.0 1032675
13:00+10ene34453 0.0 10311525
16:00+11s134792 0.0 10291422
19:00+8ssw346597 0.0 1029230
22:00+5sse117516 0.0 1030115
17 april, sat
sat1701:00+4ene33845 0.0 103081
04:00+3ne33765 0.0 103079
07:00+2nne35770 0.0 1030128
10:00+8ene34530 0.0 1030661
13:00+11se224654 0.0 10281076
16:00+10ssw4356100 0.0 1027754
19:00+8wsw356822 0.0 1027196
22:00+5wnw358312 0.0 1027127
18 april, sun
sun1801:00+4w22845 0.0 102755
04:00+4wnw2282100 0.0 102657
07:00+5wnw1277100 0.0 102570
10:00+9sw2260100 0.0 1025428
13:00+10sw446395 0.0 1025736
16:00+10sw446792 0.0 1024642
19:00+8sw347495 0.0 1023263
22:00+7sw338093 0.0 102392
19 april, mon
mon1901:00+6sw228380 0.0 102253
04:00+6ssw128786 0.0 102149
07:00+7se238487 0.0 1020107
10:00+10sse3466100 0.0 1020602
13:00+11s4463100 0.0 1019677
16:00+10s3361100 0.0 1017547
19:00+9sse2370100 0.0 1016120
22:00+7ese2272100 0.0 101627